{"data":{"norad_id":65254,"intl_designator":"2025-179V","name":"STARLINK-34979","alt_names":[],"object_type":"PAYLOAD","status":"ACTIVE","operator":null,"country":"US","launch_date":"2025-08-18","launch_site_code":"AFWTR","launch_vehicle":null,"mission":null,"orbit_class":"UNKNOWN","rcs_meters":null,"size_class":null,"mass_kg":null,"dimensions":null,"purposes":["comms"],"wikipedia_slug":null,"has_3d_model":false,"image_url":null,"decayed_at":null,"tle_current":{"epoch":"2026-05-25T02:41:17.493792Z","epoch_age_seconds":72122,"freshness":"FRESH","line1":"1 65254U 25179V   26145.11200803 -.00000596  00000+0 -37252-4 0  9993","line2":"2 65254  97.4477 187.8633 0001318  93.6081 266.5297 15.05660403 43316","mean_motion":15.05660403,"eccentricity":0.0001318,"inclination_deg":97.4477,"raan_deg":187.8633,"arg_perigee_deg":93.6081,"mean_anomaly_deg":266.5297,"bstar":-3.7252e-5,"rev_number":4331,"period_min":95.63909611562,"perigee_km":548.56618423074,"apogee_km":550.39230387267,"semimajor_km":6927.6162440517,"source":"CELESTRAK","updated_at":"2026-05-25T13:38:20.728060Z"}}}